Fort Lewis, WA
on Sunday, February 3, 2013

Sunday
Previous Day Next Day
Daily Summary
 ActualAverage (KOLM)Record (KOLM)
Temperature
Mean Temperature °F 40°F  
Max Temperature 46°F 48°F 60°F (1954)
Min Temperature 30°F 33°F 1°F (1950)
Degree Days
Heating Degree Days 27 24  
Month to date heating degree days 73  
Since 1 July heating degree days 3124  
Cooling Degree Days 0 0  
Month to date cooling degree days 0  
Year to date cooling degree days 0  
Moisture
Dew Point 36°F   
Average Humidity 97    
Maximum Humidity 100    
Minimum Humidity 81    
Precipitation
Precipitation 0.00 in 0.21 in 1.50 in (1968)
Month to date precipitation 0.60  
Year to date precipitation 8.44  
Wind
Wind Speed 3 mph   
Max Wind Speed 9 mph   
Max Gust Speed mph   
Visibility 7 miles   
Events Fog   

Key: T is trace of precipitation, MM is missing value
Source: NWS Daily Summary
Time(PST)TemperatureDew PointHumidity Pressure Visibility Wind DirectionWind SpeedGust SpeedPrecipitationEvents Conditions
12:03 AM 32.0°F 32.0°F 100% 30.28 in 0.8 miles WNW 2.3 mph - N/A   Mist
12:05 AM 32.0°F 32.0°F 100% 30.28 in 0.8 miles WNW 2.3 mph - N/A   Overcast
12:10 AM 32.0°F 32.0°F 100% 30.28 in 1.5 miles WNW 2.3 mph - N/A   Overcast
12:15 AM 32.0°F 32.0°F 100% 30.29 in 2.0 miles Calm Calm - N/A   Overcast
12:20 AM 32.0°F 32.0°F 100% 30.29 in 1.0 miles WNW 3.5 mph - N/A   Overcast
12:25 AM 32.0°F 32.0°F 100% 30.29 in 0.8 miles WNW 4.6 mph - N/A   Overcast
12:30 AM 32.0°F 32.0°F 100% 30.28 in 0.8 miles WNW 2.3 mph - N/A   Overcast
12:35 AM 32.0°F 32.0°F 100% 30.29 in 0.2 miles WNW 1.2 mph - N/A Fog Fog
12:40 AM 32.0°F 32.0°F 100% 30.29 in 0.2 miles Calm Calm - N/A Fog Fog
12:58 AM 32.4°F 32.2°F 99% 30.30 in 0.2 miles Calm Calm - 0.00 in Fog Fog
1:08 AM 32.0°F 32.0°F 100% 30.28 in 0.2 miles WNW 2.3 mph - N/A Fog Fog
1:23 AM 32.0°F 32.0°F 100% 30.28 in 0.2 miles WNW 4.6 mph - N/A Fog Fog
1:43 AM 32.0°F 32.0°F 100% 30.29 in 0.2 miles WNW 4.6 mph - N/A Fog Light Freezing Fog
1:53 AM 32.0°F 32.0°F 100% 30.28 in 0.5 miles WNW 3.5 mph - N/A Fog Light Freezing Fog
1:58 AM 30.7°F 30.6°F 99% 30.30 in 0.5 miles WNW 3.5 mph - N/A Fog Light Freezing Fog
2:03 AM 32.0°F 32.0°F 100% 30.28 in 1.0 miles WNW 4.6 mph - N/A   Mist
2:08 AM 32.0°F 32.0°F 100% 30.28 in 2.0 miles WNW 4.6 mph - N/A   Overcast
2:13 AM 32.0°F 30.2°F 93% 30.27 in 3.0 miles WNW 3.5 mph - N/A   Mostly Cloudy
2:23 AM 32.0°F 32.0°F 100% 30.27 in 4.0 miles WNW 5.8 mph - N/A   Mostly Cloudy
2:28 AM 32.0°F 32.0°F 100% 30.27 in 3.0 miles WNW 5.8 mph - N/A   Overcast
2:33 AM 32.0°F 32.0°F 100% 30.27 in 5.0 miles WNW 1.2 mph - N/A   Overcast
2:38 AM 32.0°F 32.0°F 100% 30.28 in 9.0 miles WNW 3.5 mph - N/A   Mostly Cloudy
2:43 AM 32.0°F 32.0°F 100% 30.27 in 9.0 miles WNW 5.8 mph - N/A   Overcast
2:48 AM 32.0°F 32.0°F 100% 30.27 in 2.5 miles WNW 4.6 mph - N/A   Overcast
2:53 AM 32.0°F 32.0°F 100% 30.28 in 1.5 miles WNW 3.5 mph - N/A   Overcast
2:58 AM 30.7°F 30.6°F 99% 30.29 in 1.8 miles WNW 4.6 mph - N/A   Overcast
3:03 AM 32.0°F 32.0°F 100% 30.27 in 4.0 miles WNW 5.8 mph - N/A   Overcast
3:08 AM 32.0°F 32.0°F 100% 30.27 in 7.0 miles WNW 3.5 mph - N/A   Overcast
3:13 AM 32.0°F 32.0°F 100% 30.27 in 10.0 miles WNW 2.3 mph - N/A   Overcast
3:48 AM 32.0°F 32.0°F 100% 30.26 in 10.0 miles WNW 2.3 mph - N/A   Scattered Clouds
3:58 AM 30.2°F 30.0°F 99% 30.29 in 10.0 miles WNW 2.3 mph - N/A   Scattered Clouds
4:13 AM 32.0°F 32.0°F 100% 30.27 in 10.0 miles WNW 5.8 mph - N/A   Mostly Cloudy
4:58 AM 32.0°F 31.8°F 99% 30.28 in 10.0 miles WNW 9.2 mph - N/A   Overcast
4:59 AM 32.0°F 32.0°F 100% 30.27 in 10.0 miles WNW 8.1 mph - N/A   Light Freezing Drizzle
5:18 AM 32.0°F 32.0°F 100% 30.27 in 10.0 miles WNW 5.8 mph - N/A   Overcast
5:58 AM 34.0°F 33.8°F 99% 30.29 in 10.0 miles WNW 5.8 mph - 0.00 in   Overcast
6:03 AM 33.8°F 33.8°F 100% 30.27 in 10.0 miles WNW 5.8 mph - N/A   Overcast
6:13 AM 33.8°F 33.8°F 100% 30.28 in 10.0 miles WNW 6.9 mph - N/A   Overcast
6:23 AM 33.8°F 33.8°F 100% 30.27 in 10.0 miles WNW 3.5 mph - N/A   Overcast
6:58 AM 35.2°F 35.1°F 99% 30.30 in 10.0 miles WNW 4.6 mph - N/A   Overcast
7:53 AM 37.4°F 35.6°F 93% 30.28 in 10.0 miles WNW 2.3 mph - N/A   Overcast
7:58 AM 36.5°F 36.3°F 99% 30.30 in 10.0 miles WNW 2.3 mph - N/A   Overcast
8:38 AM 37.4°F 37.4°F 100% 30.29 in 10.0 miles Calm Calm - N/A   Overcast
8:43 AM 37.4°F 37.4°F 100% 30.29 in 10.0 miles Calm Calm - N/A   Overcast
8:58 AM 37.2°F 36.9°F 99% 30.32 in 10.0 miles Calm Calm - N/A   Overcast
9:58 AM 38.1°F 37.9°F 99% 30.32 in 10.0 miles WNW 3.5 mph - N/A   Overcast
10:03 AM 39.2°F 37.4°F 93% 30.30 in 10.0 miles WNW 3.5 mph - N/A   Overcast
10:58 AM 39.7°F 39.6°F 99% 30.31 in 10.0 miles WNW 5.8 mph - N/A   Overcast
11:58 AM 42.6°F 42.4°F 99% 30.30 in 10.0 miles WNW 5.8 mph - N/A   Overcast
12:58 PM 44.4°F 43.3°F 96% 30.29 in 10.0 miles WNW 3.5 mph - N/A   Overcast
1:58 PM 45.5°F 42.4°F 89% 30.27 in 10.0 miles WNW 3.5 mph - N/A   Overcast
2:58 PM 46.8°F 41.7°F 83% 30.27 in 10.0 miles WNW 4.6 mph - N/A   Overcast
3:58 PM 46.4°F 41.4°F 83% 30.27 in 10.0 miles WNW 3.5 mph - N/A   Overcast
4:03 PM 46.4°F 41.0°F 81% 30.25 in 10.0 miles WNW 3.5 mph - N/A   Overcast
4:13 PM 46.4°F 41.0°F 81% 30.25 in 10.0 miles WNW 2.3 mph - N/A   Overcast
4:23 PM 46.4°F 41.0°F 81% 30.25 in 10.0 miles NW 1.2 mph - N/A   Overcast
4:58 PM 45.3°F 42.1°F 88% 30.27 in 10.0 miles WNW 1.2 mph - N/A   Overcast
5:33 PM 44.6°F 42.8°F 93% 30.25 in 10.0 miles WNW 2.3 mph - N/A   Overcast
5:38 PM 44.6°F 42.8°F 93% 30.25 in 10.0 miles WNW 2.3 mph - N/A   Overcast
5:53 PM 44.6°F 42.8°F 93% 30.24 in 10.0 miles WNW 3.5 mph - N/A   Overcast
5:58 PM 44.2°F 42.3°F 93% 30.26 in 10.0 miles WNW 4.6 mph - N/A   Overcast
6:43 PM 44.6°F 42.8°F 93% 30.24 in 10.0 miles WNW 2.3 mph - N/A   Overcast
6:58 PM 44.1°F 42.6°F 95% 30.26 in 10.0 miles WNW 2.3 mph - N/A   Overcast
7:58 PM 44.2°F 42.6°F 94% 30.25 in 10.0 miles Calm Calm - N/A   Overcast
8:58 PM 44.1°F 42.4°F 94% 30.24 in 10.0 miles Calm Calm - N/A   Overcast
9:58 PM 43.9°F 42.4°F 95% 30.25 in 10.0 miles NW 1.2 mph - N/A   Overcast
10:58 PM 43.7°F 42.4°F 95% 30.24 in 10.0 miles WNW 3.5 mph - N/A   Overcast
11:58 PM 43.7°F 42.1°F 94% 30.23 in 10.0 miles WNW 2.3 mph - N/A   Overcast
Moon Phase
Feb. 03 Feb. 10 Feb. 17 Feb. 25 Mar. 04
Sunrise:07:32 AM (PST) Moon Rise:01:07 AM (PST)2/3
Sunset:05:16 PM (PST) Moon Set:10:55 AM (PST)2/3

Copyright © 2014 The Weather Underground, Inc.